Starlink 3960

operational
NORAD ID: 52659 Int'l Des: 2022-053 Owner: SPXS Country: US Constellation: starlink
LEOCIRCULAR

About Starlink 3960

Description loading...

Live Position

Loading 3D Globe...

Upcoming Passes

Altitude History

Altitude vs Time

uPlot chart will show altitude changes over time

Two-Line Element Set

1 52659U 22053D 25351.22233175 .00001045 00000-0 83761-4 0 9999
2 52659 53.2156 164.2832 0001361 87.1065 273.0083 15.08842496198777
Epoch: Dec 17, 2025 • Age: 12 hours

Current Status

Altitude 539.7 km
Velocity 7.60 km/s
Sub-Earth Point 18.05°N, 15.9°W
Launch Date May 18, 2022
Age 3.5 years
Type internet

Technical Details

Classification Payload
Mass 297.00 kg
Dry Mass 275.00 kg
Total Mass 297.00 kg
Length 0.20 m
Diameter 2.80 m
Span 9.00 m
Shape Box + pan
Manufacturer SPXS
Bus Type Starlink
Phase Status In Orbit
Owner/State SPXS/US

Large Constellations

Loading constellations...